EDT,Max TemperatureF,Mean TemperatureF,Min TemperatureF,Max Dew PointF,MeanDew PointF,Min DewpointF,Max Humidity, Mean Humidity, Min Humidity, Max Sea Level PressureIn, Mean Sea Level PressureIn, Min Sea Level PressureIn, Max VisibilityMiles, Mean VisibilityMiles, Min VisibilityMiles, Max Wind SpeedMPH, Mean Wind SpeedMPH, Max Gust SpeedMPH,PrecipitationIn, CloudCover, Events, WindDirDegrees
2012-10-1,62,54,46,54,50,46,100,84,67,29.92,29.73,29.65,10,9,1,18,6,25,0.03,6,Rain,210
2012-10-2,68,59,49,58,53,48,100,78,55,30.06,30.01,29.91,10,9,2,6,2,,0.02,4,Rain,211
2012-10-3,63,61,58,61,59,57,100,97,93,30.18,30.11,30.05,10,4,1,7,1,12,0.22,8,Rain,52
2012-10-4,61,60,58,61,58,57,100,95,90,30.19,30.11,30.03,10,7,0,6,1,8,0.16,8,Fog-Rain,124
2012-10-5,77,66,55,59,57,53,100,73,46,30.03,29.98,29.90,10,5,0,8,2,12,0.00,4,Fog,224
2012-10-6,78,61,44,61,53,42,100,73,45,29.91,29.80,29.66,10,8,2,20,5,25,T,3,Rain,211
2012-10-7,55,45,35,45,39,34,100,74,47,30.07,30.02,29.92,10,10,5,9,3,25,0.15,3,Rain,300
2012-10-8,56,47,37,43,40,36,100,74,47,30.34,30.20,30.08,10,6,0,12,2,14,0.02,5,Fog-Rain,333
2012-10-9,56,46,36,46,42,36,100,83,66,30.33,30.27,30.17,10,8,0,12,4,16,0.00,7,Fog,49
2012-10-10,55,51,47,54,49,42,100,90,80,30.16,29.88,29.72,10,5,0,12,3,18,0.20,8,Fog-Rain,6
2012-10-11,57,47,37,40,33,28,92,64,35,30.11,30.00,29.79,10,10,10,21,9,35,0.00,2,,261
2012-10-12,53,43,32,39,30,21,86,60,33,30.36,30.12,29.96,10,10,9,21,9,30,0.01,4,Rain,314
2012-10-13,52,38,23,30,24,19,92,60,28,30.46,30.38,30.30,10,10,10,16,4,21,T,1,,283
2012-10-14,57,48,39,52,45,30,100,81,62,30.29,30.04,29.91,10,5,0,9,3,14,0.35,5,Fog-Rain,177
2012-10-15,72,60,47,61,56,46,100,81,61,29.89,29.70,29.60,10,8,2,12,5,25,0.35,6,Rain,177
2012-10-16,58,45,32,57,38,31,100,72,44,29.87,29.68,29.58,10,10,10,29,11,39,T,4,,305
2012-10-17,63,46,29,39,33,27,100,65,29,30.01,29.95,29.89,10,10,10,10,2,14,0.00,1,,301
2012-10-18,66,50,34,46,40,35,100,67,34,30.14,30.08,30.02,10,10,5,12,3,22,0.00,1,,132
2012-10-19,62,55,47,61,55,46,100,92,84,30.11,29.91,29.74,10,5,1,16,5,25,0.67,8,Rain-Thunderstorm,98
2012-10-20,75,63,50,64,58,43,100,68,35,29.74,29.67,29.59,10,9,3,14,5,24,0.04,6,Rain,174
2012-10-21,63,49,35,42,39,35,100,70,39,29.87,29.82,29.74,10,10,10,22,7,29,0.00,3,,261
2012-10-22,64,51,37,41,38,35,92,64,36,29.99,29.92,29.86,10,10,10,21,7,29,0.00,2,,294
2012-10-23,63,49,34,42,38,35,92,66,39,30.14,30.08,30.01,10,10,10,17,4,22,0.00,0,,306
2012-10-24,63,46,28,36,30,24,100,63,25,30.23,30.19,30.13,10,8,0,6,1,8,0.00,1,Fog,130
2012-10-25,63,49,34,46,39,33,100,68,36,30.32,30.27,30.25,10,10,10,10,2,14,0.00,4,,131
2012-10-26,66,53,40,51,46,39,100,80,60,30.26,30.19,30.13,10,8,1,7,1,9,0.00,3,,111
2012-10-27,66,55,43,52,47,42,100,82,63,30.13,30.09,30.02,10,4,0,7,1,,0.00,6,Fog,18
2012-10-28,54,52,49,47,43,36,93,72,50,30.05,29.98,29.86,10,10,4,13,7,20,0.00,6,,48
2012-10-29,59,54,49,54,51,32,100,93,86,29.84,29.55,29.30,10,3,1,28,16,55,0.75,8,Rain,56
2012-10-30,68,58,48,64,55,32,100,84,68,29.62,29.56,29.53,10,7,2,26,13,37,0.51,6,Rain-Thunderstorm,110
2012-10-31,57,51,45,55,48,42,100,83,66,29.56,29.52,29.46,10,6,0,15,6,20,T,7,Fog-Rain,165